Location: Rio de Janeiro
(22.9068°S, 43.1729°W)
Time: 22:57:03
(UTC-03:00)

Hubble Space Telescope - Pass Details

Date: 05 December 2023
Orbit: 515 x 519 km, 28.5° (Epoch: 02 March)

Event Time Altitude Azimuth Distance (km) Brightness Sun altitude
Exits shadow 03:54:46 - 246° (WSW) 1,941 3.3 -13.9°
Reaches altitude 10° 03:55:14 10° 244° (WSW) 1,767 3.1 -13.8°
Maximum altitude 03:59:08 43° 171° (S) 744 1.8 -13.0°
Drops below altitude 10° 04:03:02 10° 98° (E) 1,760 4.6 -12.3°
Sets 04:05:21 0° 91° (E) 2,646 5.5 -11.8°
